GW1109 Weather Reports


time (UTC)temp
C
wind
direction
speed
KPH
gust
KPH
rain 1hr
cm
rain 24hr
cm
rain mn
cm
humidity
%
barometer
mb
20260906194553 21 355 9.7 20.9 0.00 0.03 0.03 35 1013.8
20260906193101 21 325 9.7 27.4 0.00 0.03 0.03 35 1013.7
20260906191558 21 344 9.7 20.9 0.00 0.03 0.03 35 1013.8
20260906190057 21 22 6.4 22.5 0.00 0.03 0.03 35 1013.8
20260906184554 20 49 6.4 16.1 0.00 0.08 0.03 37 1014.0
20260906183052 20 333 8.0 20.9 0.00 0.08 0.03 34 1014.0
20260906181606 20 344 9.7 24.1 0.00 0.08 0.03 37 1014.1
20260906180106 20 13 6.4 20.9 0.00 0.08 0.03 39 1014.1
20260906174602 20 335 9.7 22.5 0.00 0.08 0.03 40 1014.2
20260906173048 20 330 9.7 24.1 0.00 0.08 0.03 40 1014.4
20260906171546 20 302 8.0 19.3 0.00 0.08 0.03 44 1014.5
20260906170056 19 294 3.2 16.1 0.00 0.08 0.03 44 1014.6
20260906164551 19 16 9.7 22.5 0.00 0.08 0.03 44 1014.9
20260906163101 19 316 4.8 17.7 0.00 0.08 0.03 46 1014.9
20260906161603 18 86 4.8 14.5 0.00 0.08 0.03 44 1015.0
20260906160056 18 34 6.4 17.7 0.00 0.08 0.03 46 1015.2
20260906154601 18 103 6.4 22.5 0.00 0.08 0.03 52 1015.3
20260906153053 17 0 6.4 20.9 0.00 0.08 0.03 57 1015.5
20260906151557 17 29 9.7 19.3 0.00 0.08 0.03 57 1015.6
20260906150104 17 313 6.4 17.7 0.00 0.08 0.03 63 1015.7
20260906144548 16 322 6.4 19.3 0.00 0.08 0.03 71 1015.7
20260906143108 16 330 4.8 19.3 0.00 0.08 0.03 83 1015.7
20260906141601 16 340 6.4 17.7 0.00 0.08 0.03 83 1015.7
20260906140058 16 341 3.2 14.5 0.00 0.08 0.03 86 1015.7
20260906134559 16 352 0.0 8.0 0.00 0.08 0.03 93 1015.9
20260906133052 16 0 1.6 6.4 0.00 0.08 0.03 94 1015.7
20260906131546 16 295 0.0 6.4 0.00 0.08 0.03 96 1015.6
20260906124600 15 5 0.0 4.8 0.00 0.08 0.03 96 1015.6
20260906123059 15 0 0.0 3.2 0.00 0.08 0.03 97 1015.7
20260906121547 15 317 3.2 6.4 0.00 0.08 0.03 98 1015.6
20260906120140 15 355 0.0 8.0 0.00 0.08 0.03 98 1015.5
20260906114605 15 349 0.0 6.4 0.00 0.08 0.03 98 1015.4
20260906113053 15 324 0.0 6.4 0.00 0.08 0.03 98 1015.3
20260906111557 15 315 0.0 3.2 0.00 0.08 0.03 98 1015.2
20260906110100 14 0 1.6 8.0 0.00 0.08 0.03 97 1015.0
20260906104556 14 0 0.0 1.6 0.00 0.08 0.03 96 1014.8
20260906103052 14 0 0.0 3.2 0.00 0.08 0.03 96 1014.7
20260906101600 14 0 0.0 3.2 0.00 0.08 0.03 95 1014.8
20260906100057 14 0 0.0 3.2 0.00 0.08 0.03 95 1014.7
20260906094557 13 348 0.0 3.2 0.03 0.08 0.03 94 1014.6
20260906093051 13 0 0.0 0.0 0.03 0.08 0.03 93 1014.6
20260906091601 13 0 0.0 1.6 0.03 0.08 0.03 92 1014.3
20260906090057 13 39 0.0 3.2 0.03 0.08 0.03 92 1014.3
20260906084554 13 0 0.0 1.6 0.00 0.05 0.00 91 1014.2
20260906083052 13 0 0.0 0.0 0.00 0.05 0.00 90 1014.3
20260906081548 13 0 0.0 1.6 0.00 0.05 0.00 89 1014.3
20260906080059 13 0 0.0 0.0 0.00 0.05 0.00 87 1014.2
20260906074554 13 0 0.0 1.6 0.00 0.05 0.00 85 1014.2
20260906073051 14 0 0.0 1.6 0.00 0.05 0.00 80 1014.0
20260906071600 14 0 0.0 1.6 0.00 0.05 0.00 80 1014.0
20260906070059 14 0 0.0 4.8 0.00 0.05 0.00 80 1014.0
20260906064553 14 0 0.0 4.8 0.00 0.05 0.00 80 1013.9
20260906063049 14 0 0.0 3.2 0.00 0.05 0.00 80 1013.8
20260906061602 14 0 0.0 6.4 0.00 0.05 0.00 80 1013.7
20260906060047 13 339 0.0 6.4 0.00 0.05 0.00 81 1013.9
20260906054605 13 0 0.0 8.0 0.00 0.05 0.00 81 1013.9
20260906053049 13 0 0.0 9.7 0.00 0.05 0.00 81 1013.8
20260906051548 13 0 0.0 1.6 0.00 0.05 0.00 81 1014.0
20260906050106 13 0 0.0 3.2 0.00 0.05 0.00 80 1014.0
20260906044549 14 0 0.0 3.2 0.00 0.05 0.00 79 1014.1
20260906043048 14 0 0.0 3.2 0.00 0.05 0.00 79 1013.8
20260906041602 14 0 0.0 6.4 0.00 0.05 0.00 79 1013.8
20260906040103 15 0 0.0 6.4 0.00 0.05 0.00 77 1014.0
20260906034554 15 0 0.0 4.8 0.00 0.05 0.05 76 1013.8
20260906033049 15 0 0.0 4.8 0.00 0.05 0.05 77 1013.6
20260906031613 15 0 0.0 6.4 0.00 0.05 0.05 78 1013.6
20260906030055 15 342 1.6 8.0 0.00 0.05 0.05 77 1013.6
20260906024601 16 0 0.0 8.0 0.00 0.05 0.05 78 1013.4
20260906023102 16 0 0.0 4.8 0.00 0.05 0.05 79 1013.4
20260906021603 16 352 0.0 4.8 0.00 0.05 0.05 79 1013.4
20260906020057 16 325 1.6 11.3 0.00 0.05 0.05 83 1013.2
20260906014553 16 0 0.0 1.6 0.00 0.05 0.05 84 1013.2
20260906013050 16 0 0.0 0.0 0.00 0.05 0.05 83 1013.3
20260906011547 16 0 0.0 0.0 0.00 0.05 0.05 83 1013.4
20260906010052 16 0 0.0 1.6 0.00 0.05 0.05 82 1013.4
20260906004546 17 0 0.0 0.0 0.00 0.05 0.05 81 1013.2
20260906003050 17 0 0.0 0.0 0.00 0.05 0.05 80 1013.0
20260906001547 17 0 0.0 0.0 0.00 0.05 0.05 80 1012.9
20260906000107 17 0 0.0 1.6 0.00 0.05 0.05 82 1012.6
20260905234559 18 0 0.0 4.8 0.00 0.05 0.05 83 1012.7
20260905233052 18 0 0.0 4.8 0.00 0.05 0.05 81 1012.5
20260905231549 18 0 0.0 0.0 0.00 0.05 0.05 77 1012.4
20260905230100 18 0 0.0 6.4 0.00 0.05 0.05 71 1012.3
20260905224552 18 5 1.6 4.8 0.00 0.05 0.05 70 1012.2
20260905223051 18 0 0.0 4.8 0.00 0.05 0.05 68 1012.2
20260905221549 19 0 0.0 8.0 0.00 0.05 0.05 66 1012.1
20260905220059 19 56 3.2 16.1 0.00 0.05 0.05 64 1011.8
20260905214555 19 321 3.2 19.3 0.00 0.05 0.05 66 1011.6
20260905213049 19 360 1.6 4.8 0.00 0.05 0.05 68 1011.5
20260905211602 19 317 3.2 6.4 0.00 0.05 0.05 67 1011.3
20260905204611 20 23 3.2 12.9 0.00 0.05 0.05 65 1011.2
20260905203101 20 26 6.4 24.1 0.00 0.05 0.05 62 1011.1
20260905201553 20 17 3.2 14.5 0.00 0.05 0.05 66 1011.0
20260905200058 20 12 3.2 12.9 0.00 0.05 0.05 69 1011.0